Radiation Dose at Monitoring Post of Fukushima Daini Nuclear Power Station
Date,Time,MP-1(microSv/h),MP-2(microSv/h),MP-3(microSv/h),MP-4(microSv/h),MP-5(microSv/h),MP-6(microSv/h),MP-7(microSv/h),Wind Direction,Wind Velocity(m/s),Rain
2024/07/01,00:00,0.145,0.128,0.207,0.196,0.203,0.115,0.075,south,5.4,Yes
2024/07/01,00:10,0.144,0.128,0.207,0.194,0.206,0.116,0.075,south,5.5,Yes
2024/07/01,00:20,0.146,0.129,0.209,0.196,0.206,0.116,0.074,south,5.3,No
2024/07/01,00:30,0.146,0.128,0.207,0.195,0.203,0.114,0.074,south,4.9,No
2024/07/01,00:40,0.144,0.129,0.206,0.194,0.206,0.116,0.075,south,4.3,No
2024/07/01,00:50,0.146,0.129,0.208,0.196,0.206,0.116,0.075,south,4.2,No
2024/07/01,01:00,0.145,0.129,0.207,0.195,0.203,0.115,0.074,south,4.3,Yes
2024/07/01,01:10,0.144,0.128,0.207,0.193,0.205,0.115,0.074,south,5.1,Yes
2024/07/01,01:20,0.145,0.129,0.208,0.196,0.207,0.116,0.074,south,3.9,Yes
2024/07/01,01:30,0.146,0.128,0.208,0.196,0.205,0.116,0.075,south-southwest,3.1,Yes
2024/07/01,01:40,0.145,0.129,0.206,0.193,0.204,0.115,0.075,south-southwest,3.9,Yes
2024/07/01,01:50,0.145,0.130,0.210,0.195,0.206,0.116,0.075,south-southwest,5.3,Yes
2024/07/01,02:00,0.146,0.128,0.209,0.195,0.205,0.116,0.075,south-southwest,5.6,Yes
2024/07/01,02:10,0.145,0.129,0.208,0.194,0.204,0.116,0.075,south,6.2,Yes
2024/07/01,02:20,0.145,0.130,0.209,0.196,0.207,0.116,0.074,south-southwest,6.1,Yes
2024/07/01,02:30,0.145,0.129,0.208,0.195,0.205,0.116,0.074,south,7.2,Yes
2024/07/01,02:40,0.144,0.130,0.208,0.194,0.204,0.115,0.075,south,8.3,Yes
2024/07/01,02:50,0.145,0.129,0.209,0.194,0.205,0.116,0.075,south,7.8,Yes
2024/07/01,03:00,0.146,0.128,0.207,0.197,0.206,0.116,0.075,south,7.7,Yes
2024/07/01,03:10,0.145,0.130,0.207,0.195,0.204,0.116,0.075,south,6.3,Yes
2024/07/01,03:20,0.144,0.129,0.209,0.194,0.204,0.116,0.075,south-southwest,5.6,Yes
2024/07/01,03:30,0.146,0.128,0.208,0.195,0.206,0.115,0.074,south,5.5,No
2024/07/01,03:40,0.145,0.129,0.206,0.195,0.204,0.117,0.075,south-southwest,4.2,No
2024/07/01,03:50,0.143,0.130,0.210,0.194,0.203,0.115,0.074,south-southwest,4.6,No
2024/07/01,04:00,0.146,0.129,0.207,0.195,0.204,0.115,0.075,south-southwest,4.2,No
2024/07/01,04:10,0.145,0.128,0.206,0.195,0.206,0.116,0.075,southwest,3.8,No
2024/07/01,04:20,0.143,0.129,0.208,0.193,0.203,0.115,0.075,south-southwest,4.1,No
2024/07/01,04:30,0.145,0.128,0.209,0.193,0.202,0.116,0.074,southwest,3.7,No
2024/07/01,04:40,0.145,0.129,0.206,0.195,0.206,0.116,0.074,south-southwest,4.1,No
2024/07/01,04:50,0.144,0.129,0.208,0.194,0.205,0.115,0.074,southwest,4.6,No
2024/07/01,05:00,0.144,0.127,0.209,0.193,0.203,0.115,0.075,south-southwest,3.2,No
2024/07/01,05:10,0.145,0.128,0.206,0.194,0.203,0.116,0.075,south-southwest,2.8,No
2024/07/01,05:20,0.145,0.129,0.206,0.194,0.206,0.115,0.075,south,2.3,No
2024/07/01,05:30,0.143,0.128,0.207,0.195,0.204,0.115,0.075,south,2.5,No
2024/07/01,05:40,0.145,0.128,0.208,0.193,0.203,0.115,0.074,south-southwest,4.5,No
2024/07/01,05:50,0.145,0.129,0.207,0.195,0.201,0.115,0.074,southwest,4.6,No
2024/07/01,06:00,0.143,0.128,0.208,0.194,0.206,0.115,0.075,south-southwest,3.6,No
2024/07/01,06:10,0.144,0.126,0.210,0.194,0.205,0.114,0.075,south-southwest,3.1,No
2024/07/01,06:20,0.146,0.129,0.207,0.192,0.203,0.115,0.074,south-southwest,4.2,No
2024/07/01,06:30,0.143,0.130,0.206,0.196,0.202,0.116,0.074,south-southwest,3.3,No
2024/07/01,06:40,0.144,0.128,0.208,0.195,0.207,0.115,0.075,southwest,3.2,No
2024/07/01,06:50,0.146,0.129,0.207,0.192,0.205,0.115,0.075,west-southwest,2.1,No
2024/07/01,07:00,0.144,0.128,0.207,0.192,0.203,0.116,0.074,west-southwest,1.3,No
2024/07/01,07:10,0.144,0.129,0.207,0.195,0.201,0.115,0.074,west-southwest,6.3,No
2024/07/01,07:20,0.144,0.128,0.209,0.195,0.204,0.115,0.074,west,8.8,No
2024/07/01,07:30,0.145,0.129,0.207,0.193,0.206,0.116,0.074,west-southwest,8.8,No
2024/07/01,07:40,0.145,0.129,0.205,0.194,0.203,0.116,0.075,west-southwest,9.8,No
2024/07/01,07:50,0.144,0.128,0.206,0.196,0.203,0.115,0.075,west-southwest,8.4,No
2024/07/01,08:00,0.144,0.128,0.210,0.197,0.202,0.115,0.073,west-southwest,7.6,No
2024/07/01,08:10,0.143,0.128,0.208,0.194,0.203,0.115,0.074,west-southwest,6.7,No
2024/07/01,08:20,0.145,0.128,0.206,0.192,0.205,0.115,0.075,west-southwest,3.9,No
2024/07/01,08:30,0.146,0.129,0.205,0.192,0.205,0.116,0.074,west-southwest,3.3,No
2024/07/01,08:40,0.145,0.129,0.207,0.195,0.203,0.115,0.074,west,2.8,No
2024/07/01,08:50,0.144,0.128,0.210,0.196,0.203,0.115,0.074,west-southwest,3.5,Yes
2024/07/01,09:00,0.144,0.128,0.208,0.196,0.203,0.115,0.074,west,3.1,Yes
2024/07/01,09:10,0.144,0.127,0.208,0.195,0.203,0.115,0.074,west,3.7,Yes
2024/07/01,09:20,0.146,0.127,0.206,0.194,0.202,0.116,0.075,west,5.5,No
2024/07/01,09:30,0.146,0.129,0.205,0.193,0.205,0.116,0.075,west,6.5,No
2024/07/01,09:40,0.145,0.129,0.207,0.195,0.206,0.116,0.075,west,4.4,No
2024/07/01,09:50,0.145,0.129,0.208,0.197,0.206,0.115,0.074,west,3.9,No
2024/07/01,10:00,0.143,0.129,0.208,0.195,0.203,0.116,0.074,west-southwest,6.1,No
2024/07/01,10:10,0.143,0.129,0.206,0.194,0.203,0.116,0.075,west-southwest,6.4,No
2024/07/01,10:20,0.146,0.129,0.206,0.193,0.202,0.116,0.075,west,4.9,No
2024/07/01,10:30,0.146,0.130,0.209,0.196,0.204,0.116,0.075,west,2.6,No
2024/07/01,10:40,0.145,0.130,0.209,0.197,0.208,0.115,0.074,west-southwest,2.7,No
2024/07/01,10:50,0.144,0.129,0.209,0.196,0.207,0.116,0.074,west,3.1,No
2024/07/01,11:00,0.143,0.129,0.207,0.194,0.205,0.116,0.075,west,2.5,No
2024/07/01,11:10,0.144,0.129,0.206,0.194,0.204,0.116,0.074,west,2.8,No
2024/07/01,11:20,0.146,0.129,0.209,0.194,0.203,0.116,0.074,south,0.8,No
2024/07/01,11:30,0.145,0.130,0.210,0.196,0.203,0.115,0.074,south,0.9,No
2024/07/01,11:40,0.145,0.130,0.208,0.196,0.206,0.116,0.074,west-northwest,2.9,No
2024/07/01,11:50,0.144,0.129,0.206,0.195,0.207,0.117,0.075,west,1.8,No
2024/07/01,12:00,0.145,0.128,0.207,0.194,0.205,0.116,0.075,west,5.0,No
2024/07/01,12:10,0.144,0.128,0.208,0.193,0.205,0.115,0.075,west,4.3,No
2024/07/01,12:20,0.145,0.130,0.207,0.196,0.203,0.116,0.074,west,3.1,No
2024/07/01,12:30,0.146,0.130,0.207,0.197,0.203,0.116,0.074,west,6.3,No
2024/07/01,12:40,0.145,0.129,0.206,0.196,0.202,0.116,0.073,west-northwest,6.9,No
2024/07/01,12:50,0.145,0.128,0.206,0.195,0.202,0.115,0.075,west,5.4,No
2024/07/01,13:00,0.143,0.127,0.210,0.194,0.203,0.115,0.074,west-northwest,2.5,No
2024/07/01,13:10,0.144,0.128,0.210,0.193,0.203,0.115,0.074,northwest,1.9,No
2024/07/01,13:20,0.144,0.129,0.208,0.193,0.203,0.116,0.074,northwest,3.4,No
2024/07/01,13:30,0.144,0.128,0.207,0.193,0.203,0.116,0.074,northwest,3.0,No
2024/07/01,13:40,0.144,0.128,0.206,0.193,0.203,0.116,0.074,west-northwest,1.7,No
2024/07/01,13:50,0.144,0.129,0.207,0.194,0.205,0.115,0.074,west,2.2,No
2024/07/01,14:00,0.145,0.128,0.206,0.194,0.205,0.115,0.073,west-northwest,1.2,No
2024/07/01,14:10,0.145,0.128,0.208,0.194,0.205,0.116,0.075,northwest,1.0,No
2024/07/01,14:20,0.145,0.129,0.208,0.195,0.205,0.115,0.074,west-northwest,3.5,No
2024/07/01,14:30,0.145,0.129,0.208,0.194,0.206,0.116,0.074,northwest,2.6,No
2024/07/01,14:40,0.144,0.130,0.208,0.194,0.205,0.115,0.074,west-northwest,2.9,No
2024/07/01,14:50,0.145,0.129,0.208,0.195,0.205,0.115,0.075,west-northwest,4.0,No
2024/07/01,15:00,0.144,0.128,0.208,0.195,0.205,0.116,0.074,west-northwest,4.0,No
2024/07/01,15:10,0.145,0.128,0.208,0.194,0.206,0.116,0.074,west-northwest,3.6,No
2024/07/01,15:20,0.145,0.129,0.208,0.194,0.205,0.115,0.074,northwest,3.3,No
2024/07/01,15:30,0.144,0.129,0.208,0.195,0.205,0.116,0.074,northwest,3.8,No
2024/07/01,15:40,0.143,0.129,0.208,0.195,0.204,0.115,0.074,northwest,4.2,No
2024/07/01,15:50,0.145,0.129,0.208,0.194,0.204,0.115,0.074,northwest,4.1,No
2024/07/01,16:00,0.145,0.129,0.207,0.194,0.204,0.116,0.074,west-northwest,3.8,No
2024/07/01,16:10,0.145,0.129,0.206,0.195,0.205,0.116,0.073,west-northwest,4.9,No
2024/07/01,16:20,0.144,0.129,0.207,0.194,0.204,0.116,0.074,west-northwest,5.6,No
2024/07/01,16:30,0.145,0.129,0.208,0.195,0.205,0.116,0.074,west-northwest,4.5,No
2024/07/01,16:40,0.145,0.129,0.207,0.194,0.205,0.115,0.074,west-northwest,7.1,No
2024/07/01,16:50,0.144,0.129,0.210,0.196,0.204,0.115,0.074,west-northwest,7.2,No
2024/07/01,17:00,0.144,0.128,0.210,0.197,0.204,0.115,0.074,west,6.0,No
2024/07/01,17:10,0.144,0.128,0.209,0.197,0.204,0.116,0.073,west,5.3,No
2024/07/01,17:20,0.143,0.129,0.207,0.195,0.203,0.116,0.074,west,3.5,No
2024/07/01,17:30,0.144,0.129,0.207,0.195,0.204,0.115,0.075,west-northwest,1.8,No
2024/07/01,17:40,0.145,0.130,0.208,0.193,0.203,0.116,0.074,west-northwest,2.7,No
2024/07/01,17:50,0.146,0.130,0.210,0.193,0.203,0.116,0.073,west-northwest,2.6,No
2024/07/01,18:00,0.146,0.129,0.210,0.197,0.203,0.116,0.074,west-southwest,2.8,No
2024/07/01,18:10,0.146,0.129,0.207,0.197,0.204,0.115,0.074,west-northwest,2.1,No
2024/07/01,18:20,0.145,0.129,0.208,0.196,0.204,0.115,0.075,north-northeast,0.8,No
2024/07/01,18:30,0.145,0.129,0.207,0.194,0.208,0.116,0.075,west-northwest,1.3,No
2024/07/01,18:40,0.144,0.130,0.209,0.195,0.207,0.116,0.074,northwest,2.8,No
2024/07/01,18:50,0.144,0.130,0.210,0.197,0.205,0.115,0.075,northwest,2.1,No
2024/07/01,19:00,0.144,0.129,0.210,0.197,0.204,0.116,0.075,north-northwest,2.5,No
2024/07/01,19:10,0.146,0.128,0.208,0.195,0.205,0.116,0.074,northwest,2.7,No
2024/07/01,19:20,0.147,0.130,0.207,0.194,0.207,0.115,0.075,northwest,3.2,No
2024/07/01,19:30,0.146,0.130,0.210,0.197,0.206,0.115,0.075,northwest,3.7,No
2024/07/01,19:40,0.144,0.128,0.208,0.196,0.204,0.117,0.074,north-northwest,4.0,No
2024/07/01,19:50,0.147,0.129,0.209,0.195,0.206,0.116,0.075,northwest,4.3,No
2024/07/01,20:00,0.146,0.130,0.211,0.195,0.206,0.115,0.075,north-northwest,3.4,No
2024/07/01,20:10,0.145,0.130,0.209,0.198,0.205,0.117,0.074,northwest,4.4,No
2024/07/01,20:20,0.146,0.129,0.208,0.196,0.203,0.117,0.074,north-northwest,3.4,No
2024/07/01,20:30,0.147,0.130,0.210,0.194,0.206,0.114,0.075,northwest,3.9,No
2024/07/01,20:40,0.147,0.129,0.209,0.198,0.207,0.117,0.074,north-northwest,3.7,No
2024/07/01,20:50,0.145,0.130,0.207,0.196,0.205,0.116,0.075,northwest,3.1,No
2024/07/01,21:00,0.144,0.130,0.211,0.193,0.204,0.115,0.075,north-northwest,3.1,No
2024/07/01,21:10,0.147,0.130,0.209,0.197,0.206,0.116,0.075,north,2.9,No
2024/07/01,21:20,0.146,0.129,0.208,0.196,0.206,0.116,0.074,north-northwest,3.4,No
2024/07/01,21:30,0.145,0.129,0.210,0.194,0.203,0.115,0.075,northwest,4.0,No
2024/07/01,21:40,0.146,0.131,0.209,0.196,0.205,0.116,0.073,northwest,5.6,No
2024/07/01,21:50,0.146,0.128,0.209,0.197,0.206,0.116,0.074,west-northwest,5.0,No
2024/07/01,22:00,0.145,0.129,0.210,0.195,0.205,0.115,0.074,west-northwest,4.9,No
2024/07/01,22:10,0.146,0.129,0.208,0.196,0.203,0.116,0.074,northwest,4.2,No
2024/07/01,22:20,0.147,0.129,0.208,0.197,0.207,0.115,0.074,northwest,3.8,No
2024/07/01,22:30,0.147,0.130,0.211,0.196,0.206,0.116,0.075,northwest,4.6,No
2024/07/01,22:40,0.145,0.130,0.208,0.196,0.205,0.117,0.074,northwest,4.7,No
2024/07/01,22:50,0.146,0.129,0.209,0.197,0.204,0.115,0.074,northwest,4.1,No
2024/07/01,23:00,0.147,0.129,0.210,0.196,0.208,0.115,0.075,north-northwest,4.7,No
2024/07/01,23:10,0.145,0.131,0.207,0.196,0.206,0.115,0.074,north-northwest,3.8,No
2024/07/01,23:20,0.146,0.129,0.210,0.196,0.204,0.116,0.075,northwest,3.8,No
2024/07/01,23:30,0.146,0.129,0.209,0.197,0.204,0.115,0.074,north-northwest,3.4,No
2024/07/01,23:40,0.146,0.131,0.207,0.195,0.206,0.116,0.075,north-northwest,3.5,No
2024/07/01,23:50,0.145,0.129,0.210,0.196,0.206,0.115,0.075,north,3.1,No
